This demonstration page uses our WeatherBlox Daily Observations layout. Learn more.

Left ArrowRight Arrow

36.17497, -115.13722

Hourly Observations for December 9, 2018

Temp ( °F °C ) Dew Point ( °F °C ) Humidity (%) Winds ( mph kmh ) Pressure ( in mb ) Visibility ( mi km ) Precip ( " mm )
12:53 am 00:53 Clear 43 6.1 37 2.8 80 80 Calm 30.39 1029 10 16.0934 0 0
1:53 am 01:53 Clear 43 6.1 37 2.8 80 80 Calm 30.4 1030 10 16.0934 0 0
2:53 am 02:53 Clear 42 5.6 36 2.2 79 79 Calm 30.4 1030 10 16.0934 0 0
3:53 am 03:53 Clear 41 5 35 1.7 79 79 NW 7 11 30.41 1030 10 16.0934 0 0
4:53 am 04:53 Clear 40 4.4 35 1.7 83 83 WNW 5 7 30.42 1030 10 16.0934 0 0
5:53 am 05:53 Clear 44 6.7 33 0.6 65 65 NW 3 6 30.44 1031 10 16.0934 0 0
6:53 am 06:53 Sunny 42 5.6 33 0.6 71 71 NNW 5 7 30.46 1031 10 16.0934 0 0
7:53 am 07:53 Sunny 44 6.7 34 1.1 68 68 Calm 30.47 1032 10 16.0934 0 0
8:53 am 08:53 Sunny 49 9.4 36 2.2 61 61 SSW 3 6 30.49 1033 10 16.0934 0 0
9:53 am 09:53 Sunny 54 12.2 37 2.8 53 53 Calm 30.48 1032 10 16.0934 0 0
10:53 am 10:53 Sunny 55 12.8 34 1.1 45 45 Calm 30.46 1031 10 16.0934 0 0
11:53 am 11:53 Sunny 57 13.9 33 0.6 41 41 Calm 30.42 1030 10 16.0934 0 0
12:53 pm 12:53 Sunny 58 14.4 33 0.6 39 39 SE 3 6 30.39 1029 10 16.0934 0 0
1:53 pm 13:53 Sunny 59 15 32 0 36 36 S 3 6 30.37 1029 10 16.0934 0 0
2:53 pm 14:53 Sunny 59 15 31 -0.6 35 35 VRB 3 6 30.36 1028 10 16.0934 0 0
3:53 pm 15:53 Sunny 59 15 32 0 36 36 Calm 30.36 1028 10 16.0934 0 0
4:53 pm 16:53 Clear 57 13.9 32 0 39 39 Calm 30.36 1028 10 16.0934 0 0
5:53 pm 17:53 Clear 54 12.2 33 0.6 45 45 SW 3 6 30.36 1028 10 16.0934 0 0
6:53 pm 18:53 Clear 50 10 35 1.7 57 57 Calm 30.36 1028 10 16.0934 0 0
7:53 pm 19:53 Clear 48 8.9 36 2.2 63 63 NW 7 11 30.37 1028 10 16.0934 0 0
8:53 pm 20:53 Clear 48 8.9 36 2.2 63 63 NNW 6 9 30.36 1028 10 16.0934 0 0
9:53 pm 21:53 Clear 47 8.3 35 1.7 63 63 NW 5 7 30.34 1028 10 16.0934 0 0
10:53 pm 22:53 Clear 46 7.8 36 2.2 68 68 WNW 3 6 30.34 1027 10 16.0934 0 0
11:53 pm 23:53 Clear 46 7.8 35 1.7 66 66 NNW 5 7 30.31 1027 10 16.0934 0 0

Powered by AerisWeather